SHT9C EGPH-EGLL

Flight info

Callsign SHT9C
Flight time 1h 2m
Altitude 33000
Route GOSAM P600 FENIK L612 NAVSO DCT VAMEB DCT NUGRA
Aircraft A320/M-SDE3FGHIRWY/LB1

Departure

Time 2026-04-23 14:03
Airport Edinburgh Airport (EGPH)

Arrival

Time 2026-04-23 15:06
Airport London Heathrow Airport (EGLL)
Time Latitude Longitude Altitude Speed Heading
2026-04-23 13:55 55.94881 -3.35690 117 ft 0 kts 298°
2026-04-23 13:57 55.94909 -3.35784 114 ft 14 kts 298°
2026-04-23 13:57 55.94998 -3.35846 113 ft 13 kts 25°
2026-04-23 13:58 55.95059 -3.35883 114 ft 13 kts 304°
2026-04-23 13:58 55.95104 -3.36055 115 ft 12 kts 287°
2026-04-23 13:58 55.95116 -3.36123 113 ft 3 kts 287°
2026-04-23 13:58 55.95128 -3.36195 113 ft 10 kts 287°
2026-04-23 13:59 55.95123 -3.36314 113 ft 5 kts 239°
2026-04-23 13:59 55.95111 -3.36350 114 ft 7 kts 239°
2026-04-23 13:59 55.95071 -3.36470 115 ft 15 kts 239°
2026-04-23 13:59 55.95002 -3.36673 116 ft 23 kts 239°
2026-04-23 14:00 55.94940 -3.36855 113 ft 28 kts 239°
2026-04-23 14:00 55.94810 -3.37238 113 ft 27 kts 239°
2026-04-23 14:00 55.94702 -3.37558 114 ft 33 kts 238°
2026-04-23 14:00 55.94607 -3.37835 116 ft 24 kts 239°
2026-04-23 14:01 55.94509 -3.38125 114 ft 31 kts 239°
2026-04-23 14:01 55.94428 -3.38366 116 ft 6 kts 238°
2026-04-23 14:01 55.94391 -3.38471 113 ft 14 kts 239°
2026-04-23 14:01 55.94331 -3.38651 114 ft 19 kts 239°
2026-04-23 14:02 55.94282 -3.38810 115 ft 11 kts 256°
2026-04-23 14:02 55.94335 -3.38918 116 ft 12 kts 328°
2026-04-23 14:02 55.94403 -3.38982 114 ft 6 kts
2026-04-23 14:02 55.94437 -3.38910 114 ft 11 kts 59°
2026-04-23 14:03 55.94564 -3.38534 113 ft 74 kts 59°
2026-04-23 14:03 55.94960 -3.37360 111 ft 141 kts 59°
2026-04-23 14:03 55.95497 -3.35800 706 ft 146 kts 58°
2026-04-23 14:03 55.96059 -3.34294 1471 ft 147 kts 51°
2026-04-23 14:04 55.96845 -3.32948 1884 ft 168 kts 43°
2026-04-23 14:04 55.97771 -3.31449 2273 ft 192 kts 43°
2026-04-23 14:04 55.98827 -3.29745 2677 ft 217 kts 43°
2026-04-23 14:04 56.00172 -3.28232 3184 ft 244 kts 14°
2026-04-23 14:05 56.01916 -3.28397 3789 ft 264 kts 336°
2026-04-23 14:05 56.03330 -3.30481 4705 ft 268 kts 299°
2026-04-23 14:05 56.03846 -3.33641 5588 ft 270 kts 268°
2026-04-23 14:05 56.03575 -3.36930 5896 ft 266 kts 252°
2026-04-23 14:06 56.02974 -3.40053 6011 ft 265 kts 247°
2026-04-23 14:06 56.02305 -3.43125 6006 ft 265 kts 247°
2026-04-23 14:06 56.01670 -3.46210 6008 ft 265 kts 249°
2026-04-23 14:06 56.01095 -3.49340 6010 ft 265 kts 251°
2026-04-23 14:07 56.00573 -3.52492 6005 ft 264 kts 252°
2026-04-23 14:07 55.99615 -3.58850 6010 ft 265 kts 253°
2026-04-23 14:07 55.99156 -3.62040 6016 ft 266 kts 254°
2026-04-23 14:08 55.98699 -3.65235 6009 ft 265 kts 254°
2026-04-23 14:08 55.98245 -3.68425 6001 ft 265 kts 254°
2026-04-23 14:08 55.97789 -3.71616 6009 ft 265 kts 253°
2026-04-23 14:08 55.97331 -3.74803 6007 ft 265 kts 253°
2026-04-23 14:09 55.96874 -3.77982 5984 ft 265 kts 253°
2026-04-23 14:09 55.96417 -3.81165 5994 ft 265 kts 253°
2026-04-23 14:09 55.95955 -3.84354 5985 ft 265 kts 254°
2026-04-23 14:09 55.95490 -3.87547 5984 ft 266 kts 253°
2026-04-23 14:10 55.95031 -3.90699 5982 ft 265 kts 253°
2026-04-23 14:10 55.94563 -3.93894 6114 ft 269 kts 253°
2026-04-23 14:10 55.94069 -3.97109 7198 ft 268 kts 250°
2026-04-23 14:10 55.93317 -4.00160 8219 ft 271 kts 239°
2026-04-23 14:11 55.92244 -4.02934 9218 ft 274 kts 229°
2026-04-23 14:11 55.90875 -4.05321 10206 ft 277 kts 217°
2026-04-23 14:11 55.89275 -4.07326 10864 ft 291 kts 213°
2026-04-23 14:11 55.87529 -4.09443 11201 ft 315 kts 213°
2026-04-23 14:12 55.85687 -4.11692 11795 ft 326 kts 214°
2026-04-23 14:12 55.84415 -4.13250 12298 ft 330 kts 214°
2026-04-23 14:12 55.82505 -4.15588 13075 ft 336 kts 214°
2026-04-23 14:12 55.80567 -4.17959 13867 ft 341 kts 214°
2026-04-23 14:13 55.78597 -4.20366 14582 ft 347 kts 214°
2026-04-23 14:13 55.76596 -4.22830 15250 ft 352 kts 213°
2026-04-23 14:13 55.74427 -4.24884 15933 ft 356 kts 200°
2026-04-23 14:13 55.72021 -4.25951 16632 ft 359 kts 186°
2026-04-23 14:14 55.69520 -4.25906 17321 ft 362 kts 171°
2026-04-23 14:14 55.67087 -4.24728 18025 ft 366 kts 157°
2026-04-23 14:14 55.64832 -4.22757 19135 ft 352 kts 152°
2026-04-23 14:14 55.62729 -4.20734 20363 ft 339 kts 150°
2026-04-23 14:15 55.60687 -4.18700 21244 ft 336 kts 150°
2026-04-23 14:15 55.58646 -4.16644 21928 ft 338 kts 150°
2026-04-23 14:15 55.56591 -4.14583 22535 ft 342 kts 150°
2026-04-23 14:15 55.54509 -4.12515 23122 ft 345 kts 151°
2026-04-23 14:16 55.52397 -4.10443 23741 ft 349 kts 151°
2026-04-23 14:16 55.50260 -4.08357 24305 ft 352 kts 151°
2026-04-23 14:16 55.48089 -4.06248 24638 ft 363 kts 151°
2026-04-23 14:16 55.45830 -4.04063 24763 ft 379 kts 152°
2026-04-23 14:17 55.43467 -4.01779 24894 ft 394 kts 151°
2026-04-23 14:17 55.41036 -3.99428 25208 ft 402 kts 151°
2026-04-23 14:17 55.38571 -3.97038 25629 ft 408 kts 151°
2026-04-23 14:17 55.36075 -3.94615 26065 ft 412 kts 151°
2026-04-23 14:18 55.33553 -3.92176 26528 ft 415 kts 152°
2026-04-23 14:18 55.31015 -3.89729 26973 ft 418 kts 152°
2026-04-23 14:18 55.28455 -3.87268 27431 ft 421 kts 152°
2026-04-23 14:18 55.25877 -3.84798 27841 ft 425 kts 152°
2026-04-23 14:19 55.23270 -3.82300 28176 ft 430 kts 152°
2026-04-23 14:19 55.20544 -3.80072 28572 ft 434 kts 158°
2026-04-23 14:19 55.17752 -3.78039 29005 ft 437 kts 158°
2026-04-23 14:19 55.14936 -3.75993 29399 ft 440 kts 158°
2026-04-23 14:20 55.12089 -3.73929 29807 ft 444 kts 157°
2026-04-23 14:20 55.09230 -3.71858 30241 ft 446 kts 157°
2026-04-23 14:20 55.06354 -3.69783 30621 ft 450 kts 158°
2026-04-23 14:20 55.03452 -3.67696 30932 ft 454 kts 158°
2026-04-23 14:21 55.00523 -3.65586 31272 ft 456 kts 158°
2026-04-23 14:21 54.97580 -3.63463 31581 ft 460 kts 158°
2026-04-23 14:21 54.94619 -3.61329 31906 ft 462 kts 158°
2026-04-23 14:21 54.91639 -3.59187 32320 ft 463 kts 158°
2026-04-23 14:22 54.88668 -3.57056 32783 ft 462 kts 158°
2026-04-23 14:22 54.85738 -3.54958 33217 ft 462 kts 158°
2026-04-23 14:22 54.82763 -3.52829 33444 ft 463 kts 158°
2026-04-23 14:22 54.79819 -3.50730 33484 ft 453 kts 158°
2026-04-23 14:23 54.73987 -3.46588 33481 ft 448 kts 158°
2026-04-23 14:23 54.68255 -3.42528 33475 ft 448 kts 158°
2026-04-23 14:24 54.62491 -3.38448 33475 ft 448 kts 158°
2026-04-23 14:24 54.56720 -3.34377 33472 ft 448 kts 158°
2026-04-23 14:25 54.50945 -3.30322 33478 ft 448 kts 158°
2026-04-23 14:25 54.45171 -3.26284 33477 ft 448 kts 158°
2026-04-23 14:26 54.39383 -3.22245 33472 ft 449 kts 158°
2026-04-23 14:26 54.33596 -3.18217 33483 ft 449 kts 157°
2026-04-23 14:27 54.27804 -3.14192 33485 ft 449 kts 157°
2026-04-23 14:27 54.22023 -3.10198 33483 ft 448 kts 157°
2026-04-23 14:28 54.16238 -3.06204 33482 ft 448 kts 157°
2026-04-23 14:28 54.10453 -3.02212 33472 ft 449 kts 157°
2026-04-23 14:29 54.04658 -2.98230 33461 ft 449 kts 158°
2026-04-23 14:29 53.98863 -2.94271 33453 ft 449 kts 158°
2026-04-23 14:30 53.93061 -2.90320 33447 ft 449 kts 158°
2026-04-23 14:30 53.87458 -2.86509 33442 ft 450 kts 158°
2026-04-23 14:31 53.81644 -2.82563 33440 ft 450 kts 158°
2026-04-23 14:31 53.75822 -2.78632 33465 ft 450 kts 158°
2026-04-23 14:32 53.69998 -2.74715 33467 ft 450 kts 158°
2026-04-23 14:32 53.64177 -2.70808 33461 ft 451 kts 158°
2026-04-23 14:33 53.58344 -2.66902 33458 ft 451 kts 158°
2026-04-23 14:33 53.52509 -2.63003 33457 ft 451 kts 158°
2026-04-23 14:34 53.46673 -2.59110 33457 ft 451 kts 158°
2026-04-23 14:34 53.40834 -2.55231 33473 ft 451 kts 158°
2026-04-23 14:35 53.34994 -2.51364 33470 ft 451 kts 158°
2026-04-23 14:35 53.29146 -2.47517 33466 ft 452 kts 158°
2026-04-23 14:36 53.23298 -2.43680 33465 ft 451 kts 158°
2026-04-23 14:36 53.17451 -2.39840 33458 ft 452 kts 158°
2026-04-23 14:37 53.11599 -2.36004 33455 ft 452 kts 158°
2026-04-23 14:37 53.05735 -2.32180 33455 ft 453 kts 158°
2026-04-23 14:38 53.00149 -2.27428 33450 ft 452 kts 146°
2026-04-23 14:38 52.94841 -2.21825 33262 ft 453 kts 147°
2026-04-23 14:39 52.92172 -2.19029 33008 ft 454 kts 147°
2026-04-23 14:39 52.89503 -2.16241 32735 ft 454 kts 147°
2026-04-23 14:39 52.86822 -2.13451 32474 ft 455 kts 147°
2026-04-23 14:39 52.84142 -2.10663 32221 ft 456 kts 147°
2026-04-23 14:40 52.81452 -2.07864 31959 ft 456 kts 147°
2026-04-23 14:40 52.78768 -2.05071 31707 ft 457 kts 146°
2026-04-23 14:40 52.76077 -2.02272 31456 ft 456 kts 146°
2026-04-23 14:40 52.73398 -1.99495 31236 ft 455 kts 146°
2026-04-23 14:41 52.70723 -1.96729 30991 ft 453 kts 146°
2026-04-23 14:41 52.68066 -1.93984 30655 ft 449 kts 146°
2026-04-23 14:41 52.65421 -1.91256 29979 ft 446 kts 146°
2026-04-23 14:41 52.62806 -1.88560 29397 ft 442 kts 146°
2026-04-23 14:42 52.60213 -1.85888 28808 ft 438 kts 146°
2026-04-23 14:42 52.57640 -1.83236 28231 ft 434 kts 146°
2026-04-23 14:42 52.55093 -1.80619 27656 ft 430 kts 146°
2026-04-23 14:42 52.52569 -1.78031 27098 ft 426 kts 146°
2026-04-23 14:43 52.50066 -1.75469 26545 ft 423 kts 146°
2026-04-23 14:43 52.47581 -1.72926 26011 ft 420 kts 146°
2026-04-23 14:43 52.45114 -1.70404 25492 ft 416 kts 146°
2026-04-23 14:43 52.42661 -1.67900 24986 ft 414 kts 146°
2026-04-23 14:44 52.40222 -1.65415 24484 ft 411 kts 146°
2026-04-23 14:44 52.37798 -1.62950 23985 ft 409 kts 146°
2026-04-23 14:44 52.35390 -1.60506 23437 ft 405 kts 146°
2026-04-23 14:44 52.33009 -1.58096 22949 ft 401 kts 146°
2026-04-23 14:45 52.30641 -1.55699 22499 ft 398 kts 146°
2026-04-23 14:45 52.28298 -1.53328 21990 ft 395 kts 146°
2026-04-23 14:45 52.25968 -1.50975 21488 ft 392 kts 146°
2026-04-23 14:45 52.23656 -1.48644 20962 ft 390 kts 146°
2026-04-23 14:46 52.21397 -1.46226 20435 ft 386 kts 140°
2026-04-23 14:46 52.19402 -1.43458 20068 ft 378 kts 137°
2026-04-23 14:46 52.17430 -1.40690 19693 ft 371 kts 137°
2026-04-23 14:46 52.15464 -1.37950 19306 ft 363 kts 137°
2026-04-23 14:47 52.13562 -1.35307 18951 ft 356 kts 137°
2026-04-23 14:47 52.11719 -1.32749 18570 ft 350 kts 137°
2026-04-23 14:47 52.09876 -1.30187 18201 ft 347 kts 137°
2026-04-23 14:47 52.08028 -1.27617 17836 ft 344 kts 137°
2026-04-23 14:48 52.06235 -1.25119 17488 ft 343 kts 137°
2026-04-23 14:48 52.04424 -1.22601 17125 ft 342 kts 137°
2026-04-23 14:48 52.02623 -1.20107 16737 ft 339 kts 137°
2026-04-23 14:48 52.00829 -1.17633 16391 ft 338 kts 137°
2026-04-23 14:49 51.99040 -1.15167 16047 ft 336 kts 137°
2026-04-23 14:49 51.97266 -1.12720 15707 ft 334 kts 137°
2026-04-23 14:49 51.95506 -1.10288 15363 ft 332 kts 137°
2026-04-23 14:49 51.93733 -1.07838 14558 ft 339 kts 137°
2026-04-23 14:50 51.91928 -1.05350 14074 ft 336 kts 137°
2026-04-23 14:50 51.90188 -1.02961 13940 ft 321 kts 137°
2026-04-23 14:50 51.88523 -1.00684 13805 ft 302 kts 137°
2026-04-23 14:50 51.86983 -0.98582 13664 ft 279 kts 137°
2026-04-23 14:51 51.85597 -0.96533 13357 ft 263 kts 128°
2026-04-23 14:51 51.84617 -0.94091 12824 ft 257 kts 113°
2026-04-23 14:51 51.83844 -0.91498 12284 ft 255 kts 114°
2026-04-23 14:51 51.83073 -0.88950 11875 ft 250 kts 114°
2026-04-23 14:52 51.82309 -0.86442 11529 ft 247 kts 114°
2026-04-23 14:52 51.81547 -0.83953 11210 ft 248 kts 114°
2026-04-23 14:52 51.80785 -0.81464 10879 ft 247 kts 114°
2026-04-23 14:52 51.80023 -0.78986 10561 ft 246 kts 114°
2026-04-23 14:53 51.79265 -0.76526 10229 ft 243 kts 114°
2026-04-23 14:53 51.78512 -0.74083 9884 ft 242 kts 114°
2026-04-23 14:53 51.77768 -0.71665 9569 ft 239 kts 114°
2026-04-23 14:53 51.77281 -0.70080 9361 ft 238 kts 114°
2026-04-23 14:54 51.76544 -0.67686 9053 ft 238 kts 114°
2026-04-23 14:54 51.75809 -0.65303 8734 ft 237 kts 115°
2026-04-23 14:54 51.75078 -0.62939 8426 ft 236 kts 115°
2026-04-23 14:54 51.74349 -0.60584 8114 ft 233 kts 115°
2026-04-23 14:55 51.73622 -0.58254 7811 ft 232 kts 118°
2026-04-23 14:55 51.72594 -0.56268 7571 ft 232 kts 139°
2026-04-23 14:55 51.71153 -0.55082 7481 ft 237 kts 161°
2026-04-23 14:55 51.69463 -0.54788 7436 ft 244 kts 174°
2026-04-23 14:56 51.67774 -0.54695 7431 ft 242 kts 174°
2026-04-23 14:56 51.66136 -0.54609 7429 ft 228 kts 174°
2026-04-23 14:56 51.64599 -0.54534 7432 ft 215 kts 174°
2026-04-23 14:56 51.63034 -0.54748 7435 ft 245 kts 193°
2026-04-23 14:57 51.61567 -0.56030 7433 ft 238 kts 219°
2026-04-23 14:57 51.60575 -0.58112 7433 ft 236 kts 244°
2026-04-23 14:57 51.60170 -0.60669 7434 ft 239 kts 265°
2026-04-23 14:57 51.60038 -0.63338 7437 ft 239 kts 265°
2026-04-23 14:58 51.59902 -0.65999 7387 ft 240 kts 264°
2026-04-23 14:58 51.59823 -0.67392 7213 ft 240 kts 264°
2026-04-23 14:58 51.59730 -0.68826 7230 ft 244 kts 263°
2026-04-23 14:58 51.59554 -0.71554 6950 ft 249 kts 264°
2026-04-23 14:59 51.59376 -0.74366 6540 ft 255 kts 263°
2026-04-23 14:59 51.58978 -0.77112 6194 ft 253 kts 239°
2026-04-23 14:59 51.57772 -0.79073 5810 ft 247 kts 204°
2026-04-23 14:59 51.56112 -0.79667 5254 ft 249 kts 175°
2026-04-23 15:00 51.54402 -0.79556 4983 ft 241 kts 173°
2026-04-23 15:00 51.52739 -0.79456 4469 ft 238 kts 174°
2026-04-23 15:00 51.51117 -0.79151 3893 ft 233 kts 159°
2026-04-23 15:00 51.49708 -0.78078 3602 ft 216 kts 141°
2026-04-23 15:01 51.48670 -0.76514 3440 ft 195 kts 125°
2026-04-23 15:01 51.48011 -0.74734 3286 ft 180 kts 110°
2026-04-23 15:01 51.47679 -0.72849 3078 ft 172 kts 97°
2026-04-23 15:01 51.47635 -0.70962 2846 ft 167 kts 90°
2026-04-23 15:02 51.47646 -0.69126 2629 ft 160 kts 89°
2026-04-23 15:02 51.47655 -0.67430 2416 ft 143 kts 89°
2026-04-23 15:02 51.47664 -0.65907 2239 ft 132 kts 88°
2026-04-23 15:02 51.47671 -0.64475 2067 ft 128 kts 88°
2026-04-23 15:03 51.47679 -0.63063 1895 ft 126 kts 89°
2026-04-23 15:03 51.47687 -0.61667 1723 ft 125 kts 89°
2026-04-23 15:03 51.47693 -0.60369 1552 ft 124 kts 89°
2026-04-23 15:03 51.47700 -0.58983 1408 ft 124 kts 87°
2026-04-23 15:04 51.47707 -0.57590 1227 ft 124 kts 87°
2026-04-23 15:04 51.47714 -0.56212 1061 ft 124 kts 87°
2026-04-23 15:04 51.47720 -0.54824 891 ft 124 kts 88°
2026-04-23 15:04 51.47727 -0.53429 731 ft 125 kts 89°
2026-04-23 15:05 51.47733 -0.52042 572 ft 122 kts 90°
2026-04-23 15:05 51.47739 -0.50653 367 ft 127 kts 92°
2026-04-23 15:05 51.47743 -0.49250 213 ft 126 kts 92°
2026-04-23 15:05 51.47746 -0.48341 126 ft 125 kts 91°
2026-04-23 15:06 51.47749 -0.47033 90 ft 105 kts 90°
2026-04-23 15:06 51.47759 -0.46198 90 ft 47 kts 90°
2026-04-23 15:06 51.47759 -0.45773 85 ft 37 kts 90°
2026-04-23 15:06 51.47732 -0.45481 86 ft 17 kts 141°
2026-04-23 15:07 51.47647 -0.45467 86 ft 7 kts 180°
2026-04-23 15:07 51.47598 -0.45513 87 ft 11 kts 255°
2026-04-23 15:07 51.47596 -0.45675 90 ft 18 kts 269°
2026-04-23 15:07 51.47595 -0.45818 87 ft 22 kts 270°
2026-04-23 15:08 51.47595 -0.46079 86 ft 27 kts 270°
2026-04-23 15:08 51.47592 -0.46404 86 ft 21 kts 270°
2026-04-23 15:08 51.47591 -0.46635 86 ft 24 kts 269°
2026-04-23 15:09 51.47582 -0.47183 89 ft 22 kts 269°
2026-04-23 15:09 51.47581 -0.47461 86 ft 28 kts 270°
2026-04-23 15:09 51.47580 -0.47801 89 ft 33 kts 270°
2026-04-23 15:09 51.47579 -0.48195 90 ft 33 kts 270°
2026-04-23 15:10 51.47578 -0.48419 90 ft 15 kts 266°
2026-04-23 15:10 51.47498 -0.48475 86 ft 10 kts 179°
2026-04-23 15:10 51.47478 -0.48475 86 ft 4 kts 179°
2026-04-23 15:10 51.47429 -0.48474 86 ft 9 kts 179°
2026-04-23 15:11 51.47366 -0.48474 86 ft 10 kts 180°
2026-04-23 15:11 51.47293 -0.48473 86 ft 11 kts 179°
2026-04-23 15:11 51.47217 -0.48473 86 ft 10 kts 180°
2026-04-23 15:11 51.47187 -0.48512 88 ft 7 kts 273°
2026-04-23 15:12 51.47188 -0.48567 86 ft 4 kts 269°
2026-04-23 15:12 51.47188 -0.48589 86 ft 0 kts 269°